Location: Igon
(43.1667°N, 0.2333°W)
Time: 22:00:52
(UTC+00:00)

GPS 2-04 Rocket1 - Pass Details

Date: 29 November 2020
Orbit: 416 x 544 km, 35.6° (Epoch: 20 January)

Event Time Altitude Azimuth Distance (km) Brightness Sun altitude
Exits shadow 05:53:15 13° 239° (WSW) 1,536 4.7 -13.9°
Maximum altitude 05:55:54 24° 189° (S) 1,043 4.3 -13.4°
Drops below altitude 10° 05:59:01 10° 133° (SE) 1,647 6.3 -12.9°
Sets 06:01:25 0° 119° (ESE) 2,497 8.0 -12.5°
